Regional Weather Roundup
Issued by NWS Jackson, KY

Home | Current Version | Previous Version | Text Only | Print | Product List | Glossary Off
Versions: 1 2 3 4 5 6 7 8 9 10 11 12 13 14 15 16 17 18 19 20 21 22 23 24 25 26 27

000
ASUS43 KJKL 220710
RWRJKL

EAST KENTUCKY HOURLY WEATHER ROUNDUP
NATIONAL WEATHER SERVICE JACKSON KY
300 AM EDT SAT JUL 22 2017

NOTE: "FAIR" INDICATES FEW OR NO CLOUDS BELOW 12,000 FEET WITH
NO SIGNIFICANT WEATHER AND/OR OBSTRUCTIONS TO VISIBILITY.

* THESE REPORTS ARE NOT UNDER NWS QUALITY CONTROL AND MAY NOT
  REPORT WEATHER SUCH AS PRECIPITATION AND FOG.

KYZ079-080-083-085-087-088-110-112-115-119-120-220800
...EASTERN KENTUCKY...

CITY           SKY/WX    TMP DP  RH WIND       PRES   REMARKS
JACKSON        CLEAR     76  72  87 CALM      30.00F
LONDON         CLEAR     75  71  87 CALM      30.00F
SOMERSET*      CLEAR     72  72 100 CALM      30.00F
MONTICELLO*    CLEAR     71  71 100 CALM      30.00F FOG
WILLIAMSBURG*  PTSUNNY   73  73 100 CALM      30.01F
MIDDLESBORO*   CLEAR     72  72  99 CALM      30.03F
HARLAN APT*    MOSUNNY   72  70  94 CALM      30.04F
PIKE CO APT*     N/A     76  76 100 CALM      30.01F
BIG SANDY APT* SUNNY     76  75  95 CALM      29.99F
MOREHEAD APT*  PTSUNNY   77  73  88 CALM      29.98F
$$

KYZ035-036-041-042-044-050-067-078-099-220800
...CENTRAL KENTUCKY...

CITY           SKY/WX    TMP DP  RH WIND       PRES   REMARKS
MT STERLING*   CLEAR     77  72  83 SW5       29.98F
FLEMING/MASON* PTCLDY    76  75  99 S5        29.95F
DANVILLE*      CLEAR     75  72  88 SW3       29.98F
LEXINGTON      CLEAR     79  72  79 S8        29.95F
FRANKFORT      CLEAR     80  72  76 SW7       29.92F
LOUISVILLE     PTCLDY    85  75  72 SW10      29.90F HX  93
LEBANON*         N/A     81  73  78 S6        29.96F
GLASGOW*       CLEAR     77  76  96 CALM      29.96F
BOWLING GREEN  CLEAR     82  77  84 S3        29.95F HX  90
$$

KYZ091>093-OHZ055-061-077-WVZ005-015-034-035-042-220800
...SOUTHERN OHIO/WEST VIRGINIA...

CITY           SKY/WX    TMP DP  RH WIND       PRES   REMARKS
COVINGTON      MOCLDY    75  74  96 S7        29.92F
COLUMBUS       CLOUDY    74  73  97 S3        29.92F
DAYTON         CLOUDY    73  72  96 S6        29.92F
WILMINGTON     PTCLDY    73  73 100 S5        29.94F
HUNTINGTON     PTCLDY    74  72  93 CALM      29.95F
CHARLESTON     LGT RAIN  72  68  87 SE3       29.98F
PINEVILLE*     CLOUDY    70  69  96 MISG      30.09F
BECKLEY        CLEAR     70  65  84 CALM      30.08F
BLUEFIELD      PTCLDY    70  64  81 SW5       30.11F
LOGAN CO APT*    N/A     73  72  94 CALM      30.01F
$$

VAZ002-007-008-TNZ017-027-036-066-071-220800
...SOUTHWEST VIRGINIA/EAST TENNESSEE...

CITY           SKY/WX    TMP DP  RH WIND       PRES   REMARKS
WISE*          CLEAR     72  72 100 CALM      30.11F
JONESVILLE*      N/A     72  72 100 CALM      30.04F
ABINGDON*      PTCLDY    73  70  90 CALM      30.07F
BRISTOL        PTCLDY    71  70  96 CALM      30.04F
MORRISTOWN*    MOSUNNY   75  72  88 CALM      30.01F
SEVIERVILLE*   SUNNY     73  66  78 CALM      30.00F
KNOXVILLE      PTCLDY    78  71  79 SW5       29.99F
LAFOLLETTE*      N/A     73  72  94 CALM      30.04F FOG
OAK RIDGE      CLEAR     77  73  87 CALM      30.01F
CROSSVILLE     CLEAR     71  70  96 CALM      30.06F
NASHVILLE      CLEAR     79  74  84 S3        29.96F
$$

...KEY TO REMARKS...
VSB - VISIBILITY IN MILES
WCI - WIND CHILL INDEX
HX  - HEAT INDEX

$$




USA.gov is the U.S. government's official web portal to all federal, state and local government web resources and services.